Showing default

COSMOS 2554, 52202

Orbit data source: Space-Track

COSMOS 2554, 52202 is a payload satellite owned by VVKO VKS (CIS) in LEO that was launched on Thu, 07 Apr 2022 UTC via a SOYUZ-2-1B launch vehicle from the Plesetsk Missile And Space Complex (PKMTR). Payload-class satellites include a variety of spacecraft equipped with specific instruments for various scientific and technological missions. These include communications satellites like Starlink; space stations such as the ISS; scientific satellites like the Hubble; Earth observation satellites from companies like Planet Labs, Umbra, and HawkEye 360; GPS; miniature CubeSats for education and research; and military/defense satellites.

Loading next visibility...
Identifier
52202, 2022-036A
Orbit
LEO
Country
Flag of CISCIS
Related business
Manufacturer
TSSKBP/ARSLO
Mission
Operational Defense Sigint
Bus & Motor
YANTAR'-LOTOS, 11D428
Mass
6,575 kg wet, ~6,500 kg dry
Launch date (UTC)
2022-04-07 (4 years ago)
Launch vehicle
SOYUZ-2-1B
Launch site
Plesetsk Missile And Space Complex (PKMTR)
Object type
Payload
Rocket body
Debris
Shape & HBR
Cyl + 2 Pan, 3.1 m
Radar Cross Section
16.222 m², Large (>1 m²)

Expand to show TLE details & history
Last TLE update: 1 day ago

TLE from 1 day ago
0 COSMOS 2554
1 52202U 22036A   26172.49611984 -.00000062  00000-0  95577-5 0  9991
2 52202  67.1468 218.2243 0005435 260.0367 100.0105 13.96672145214556
Epoch: 2026-06-21T11:54Z
TLE epoch observation values (Epoch: 2026-06-21T11:54:24.754Z)
Latitude
0.00006°
Longitude
129.92563°
Altitude
908.14 km
Speed
7.398 km/s
True Right ascension
14h 32m 53s
True Declination
0° 00' 00"
Sunlit
Object was in full shadow at epoch
Visualization orbit readout
Latitude
Unknown
Longitude
Unknown
Altitude
Unknown
Speed
Unknown
Apparent Right ascension
Unknown
Apparent Declination
Unknown
Sunlit
N/A
Visualization observer readout
Local Sidereal Time
23:08:40
Azimuth
Unknown
Elevation
Unknown
Doppler factor
Unknown
Orbital elements
Apogee altitude
907.649 km
Perigee altitude
899.734 km
Semi-major axis
7,281.828 km
Eccentricity
0.00054
Inclination
67.1468°
RAAN
218.2243°
Arg. of periapsis
260.0367°
True anomaly
100.07183°
Mean anomaly
100.0105°
Eccentric anomaly
100.04116°
Mean motion
3.49287 °/min
Orbital period
103.07 mins
BSTAR
0.0000095577
Loading maneuver chart data...
Computing Atmospheric mass density...
Loading historical data...
Loading historical data...
Loading historical data...
Loading historical data...
Loading historical data...
Loading historical data...
Loading historical data...
Other satellites on launch #36 in the year 2022 (2022-04-07 UTC)

Documentation

Showing up to 5 results
|